Terminal Aerodrome Forecast
Issued by NWS

Current Version | Previous Version | Graphics & Text | Print | Product List | Glossary On
Versions: 1 2 3 4 5 6 7 8 9 10 11 12 13 14 15 16 17 18 19 20 21
000
FTUS41 KPBZ 291127
TAFHLG
TAF
KHLG 291127Z 2912/3012 19003KT P6SM SCT100
     FM291800 15008KT P6SM -SHRA BKN070
     FM292000 14008KT P6SM BKN100
     FM300300 13008KT P6SM -SHRA SCT020 BKN040
     FM300800 17004KT P6SM -SHRA BKN020=

USA.gov is the U.S. government's official web portal to all federal, state and local government web resources and services.